| time (UTC) | temp C | wind direction | speed KPH | gust KPH | rain 1hr cm | rain 24hr cm | rain mn cm | humidity % | barometer mb |
| 20260502152033 | 11 | 247 | 14.5 | 16.1 | 0.00 | 0.00 | 0.00 | 53 | 1016.8 |
| 20260502151530 | 10 | 264 | 1.6 | 3.2 | 0.00 | 0.00 | 0.00 | 56 | 1016.9 |
| 20260502151027 | 10 | 257 | 8.0 | 17.7 | 0.00 | 0.00 | 0.00 | 59 | 1016.9 |
| 20260502150525 | 10 | 234 | 0.0 | 1.6 | 0.00 | 0.00 | 0.00 | 59 | 1016.8 |
| 20260502130410 | 6 | 356 | 4.8 | 8.0 | 0.00 | 0.00 | 0.00 | 80 | 1017.5 |
| 20260502123347 | 5 | 348 | 3.2 | 4.8 | 0.00 | 0.00 | 0.00 | 99 | 1017.2 |
| 20260502122844 | 4 | 242 | 0.0 | 1.6 | 0.00 | 0.00 | 0.00 | 99 | 1017.2 |
| 20260502122339 | 5 | 255 | 0.0 | 0.0 | 0.00 | 0.00 | 0.00 | 99 | 1017.0 |
| 20260502121838 | 4 | 231 | 0.0 | 0.0 | 0.00 | 0.00 | 0.00 | 99 | 1016.7 |
| 20260502121335 | 5 | 236 | 0.0 | 0.0 | 0.00 | 0.00 | 0.00 | 99 | 1017.0 |
| 20260502120832 | 3 | 235 | 0.0 | 0.0 | 0.00 | 0.00 | 0.00 | 99 | 1017.1 |
| 20260502120328 | 3 | 244 | 0.0 | 0.0 | 0.00 | 0.00 | 0.00 | 99 | 1016.8 |
| 20260502115827 | 3 | 234 | 0.0 | 0.0 | 0.00 | 0.00 | 0.00 | 99 | 1016.9 |
| 20260502115323 | 3 | 241 | 0.0 | 0.0 | 0.00 | 0.00 | 0.00 | 99 | 1017.0 |
| 20260502114819 | 3 | 237 | 0.0 | 0.0 | 0.00 | 0.00 | 0.00 | 99 | 1016.9 |
| 20260502114316 | 3 | 217 | 0.0 | 0.0 | 0.00 | 0.00 | 0.00 | 99 | 1017.0 |
| 20260502113813 | 3 | 240 | 0.0 | 0.0 | 0.00 | 0.00 | 0.00 | 99 | 1016.9 |
| 20260502113311 | 3 | 233 | 0.0 | 0.0 | 0.00 | 0.00 | 0.00 | 99 | 1017.0 |
| 20260502112809 | 3 | 236 | 0.0 | 0.0 | 0.00 | 0.00 | 0.00 | 99 | 1016.9 |
| 20260502112306 | 3 | 233 | 0.0 | 0.0 | 0.00 | 0.00 | 0.00 | 99 | 1016.8 |
| 20260502111803 | 3 | 243 | 0.0 | 0.0 | 0.00 | 0.00 | 0.00 | 99 | 1016.9 |
| 20260502111301 | 3 | 258 | 1.6 | 1.6 | 0.00 | 0.00 | 0.00 | 99 | 1016.9 |
| 20260502110758 | 3 | 238 | 0.0 | 0.0 | 0.00 | 0.00 | 0.00 | 99 | 1016.7 |
| 20260502110256 | 3 | 238 | 0.0 | 0.0 | 0.00 | 0.00 | 0.00 | 99 | 1016.8 |
| 20260502105754 | 3 | 239 | 0.0 | 0.0 | 0.00 | 0.00 | 0.00 | 99 | 1016.8 |
| 20260502105249 | 3 | 237 | 0.0 | 0.0 | 0.00 | 0.00 | 0.00 | 99 | 1017.0 |
| 20260502104748 | 3 | 253 | 0.0 | 0.0 | 0.00 | 0.00 | 0.00 | 99 | 1017.0 |
| 20260502104245 | 3 | 250 | 0.0 | 0.0 | 0.00 | 0.00 | 0.00 | 99 | 1017.0 |
| 20260502103742 | 3 | 235 | 0.0 | 0.0 | 0.00 | 0.00 | 0.00 | 99 | 1017.0 |
| 20260502103240 | 3 | 245 | 0.0 | 0.0 | 0.00 | 0.00 | 0.00 | 99 | 1016.7 |
| 20260502102736 | 3 | 245 | 0.0 | 0.0 | 0.00 | 0.00 | 0.00 | 99 | 1016.9 |
| 20260502102233 | 3 | 245 | 0.0 | 0.0 | 0.00 | 0.00 | 0.00 | 99 | 1017.1 |
| 20260502101731 | 3 | 245 | 0.0 | 0.0 | 0.00 | 0.00 | 0.00 | 99 | 1017.0 |
| 20260502101229 | 3 | 248 | 0.0 | 0.0 | 0.00 | 0.00 | 0.00 | 99 | 1016.9 |
| 20260502100727 | 3 | 245 | 0.0 | 0.0 | 0.00 | 0.00 | 0.00 | 99 | 1016.8 |
| 20260502100225 | 3 | 246 | 0.0 | 0.0 | 0.00 | 0.00 | 0.00 | 99 | 1016.8 |
| 20260502091159 | 2 | 253 | 0.0 | 0.0 | 0.00 | 0.00 | 0.00 | 99 | 1017.0 |
| 20260502090656 | 1 | 258 | 0.0 | 0.0 | 0.00 | 0.00 | 0.00 | 99 | 1017.2 |
| 20260502090153 | 1 | 250 | 0.0 | 0.0 | 0.00 | 0.00 | 0.00 | 99 | 1017.2 |
| 20260502071050 | 3 | 257 | 0.0 | 0.0 | 0.00 | 0.00 | 0.00 | 99 | 1016.5 |
| 20260502070548 | 3 | 266 | 0.0 | 0.0 | 0.00 | 0.00 | 0.00 | 99 | 1016.5 |
| 20260502070045 | 3 | 254 | 0.0 | 0.0 | 0.00 | 0.00 | 0.00 | 99 | 1016.5 |
| 20260502065544 | 3 | 257 | 0.0 | 0.0 | 0.00 | 0.00 | 0.00 | 99 | 1016.7 |
| 20260502065041 | 3 | 259 | 0.0 | 0.0 | 0.00 | 0.00 | 0.00 | 99 | 1016.6 |
| 20260502064539 | 4 | 265 | 0.0 | 0.0 | 0.00 | 0.00 | 0.00 | 99 | 1016.6 |
| 20260502064036 | 4 | 248 | 0.0 | 0.0 | 0.00 | 0.00 | 0.00 | 99 | 1016.7 |
| 20260502063534 | 4 | 248 | 0.0 | 0.0 | 0.00 | 0.00 | 0.00 | 99 | 1017.0 |
| 20260502063031 | 4 | 253 | 0.0 | 0.0 | 0.00 | 0.00 | 0.00 | 99 | 1016.9 |
| 20260502062528 | 3 | 252 | 0.0 | 0.0 | 0.00 | 0.00 | 0.00 | 99 | 1017.2 |
| 20260502062027 | 3 | 247 | 0.0 | 0.0 | 0.00 | 0.00 | 0.00 | 99 | 1017.3 |
| 20260502061524 | 3 | 248 | 0.0 | 0.0 | 0.00 | 0.00 | 0.00 | 99 | 1017.1 |
| 20260502061021 | 4 | 253 | 0.0 | 0.0 | 0.00 | 0.00 | 0.00 | 99 | 1017.0 |
| 20260502060516 | 3 | 252 | 0.0 | 0.0 | 0.00 | 0.00 | 0.00 | 99 | 1017.1 |
| 20260502060013 | 3 | 242 | 0.0 | 0.0 | 0.00 | 0.00 | 0.00 | 99 | 1017.1 |
| 20260502055510 | 3 | 251 | 0.0 | 0.0 | 0.00 | 0.00 | 0.00 | 99 | 1017.2 |
| 20260502055009 | 3 | 251 | 0.0 | 0.0 | 0.00 | 0.00 | 0.00 | 99 | 1017.1 |
| 20260502054508 | 3 | 259 | 0.0 | 0.0 | 0.00 | 0.00 | 0.00 | 99 | 1017.2 |
| 20260502054004 | 3 | 260 | 0.0 | 0.0 | 0.00 | 0.00 | 0.00 | 99 | 1017.1 |
| 20260502053501 | 3 | 260 | 0.0 | 0.0 | 0.00 | 0.00 | 0.00 | 99 | 1017.3 |
| 20260502052959 | 3 | 260 | 0.0 | 0.0 | 0.00 | 0.00 | 0.00 | 99 | 1017.3 |
| 20260502052457 | 3 | 247 | 0.0 | 0.0 | 0.00 | 0.00 | 0.00 | 99 | 1017.3 |
| 20260502051955 | 3 | 241 | 0.0 | 0.0 | 0.00 | 0.00 | 0.00 | 99 | 1017.3 |
| 20260502051453 | 3 | 241 | 0.0 | 0.0 | 0.00 | 0.00 | 0.00 | 99 | 1017.2 |
| 20260502050950 | 3 | 240 | 0.0 | 0.0 | 0.00 | 0.00 | 0.00 | 99 | 1017.5 |
| 20260502050446 | 3 | 253 | 0.0 | 0.0 | 0.00 | 0.00 | 0.00 | 99 | 1017.3 |
| 20260502045944 | 3 | 259 | 0.0 | 0.0 | 0.00 | 0.00 | 0.00 | 99 | 1017.3 |
| 20260502045440 | 2 | 265 | 0.0 | 0.0 | 0.00 | 0.00 | 0.00 | 99 | 1017.4 |
| 20260502044937 | 2 | 276 | 0.0 | 0.0 | 0.00 | 0.00 | 0.00 | 99 | 1017.3 |
| 20260502044433 | 2 | 281 | 0.0 | 0.0 | 0.00 | 0.00 | 0.00 | 99 | 1017.4 |
| 20260502043930 | -17 | 0.0 | 0.0 | 0.00 | 0.00 | 0.00 | 1017.2 | ||
| 20260502043428 | -17 | 0.0 | 0.0 | 0.00 | 0.00 | 0.00 | 1017.5 | ||
| 20260502042927 | 2 | 300 | 0.0 | 0.0 | 0.00 | 0.00 | 0.00 | 99 | 1017.3 |
| 20260502042424 | 2 | 300 | 0.0 | 0.0 | 0.00 | 0.00 | 0.00 | 99 | 1017.3 |
| 20260502041921 | 2 | 266 | 0.0 | 0.0 | 0.00 | 0.00 | 0.00 | 99 | 1017.4 |
| 20260502041420 | 3 | 270 | 0.0 | 0.0 | 0.00 | 0.00 | 0.00 | 99 | 1017.2 |
| 20260502040916 | 3 | 286 | 0.0 | 0.0 | 0.00 | 0.00 | 0.00 | 99 | 1017.3 |
| 20260502040413 | 3 | 270 | 0.0 | 0.0 | 0.00 | 0.00 | 0.00 | 99 | 1017.4 |
| 20260502035909 | 3 | 277 | 0.0 | 0.0 | 0.00 | 0.03 | 0.03 | 99 | 1017.3 |
| 20260502035406 | 3 | 272 | 0.0 | 0.0 | 0.00 | 0.03 | 0.03 | 99 | 1017.4 |
| 20260502034903 | 3 | 289 | 0.0 | 0.0 | 0.00 | 0.03 | 0.03 | 99 | 1017.2 |
| 20260502034402 | 3 | 267 | 0.0 | 0.0 | 0.00 | 0.03 | 0.03 | 99 | 1017.2 |
| 20260502033900 | -17 | 0.0 | 0.0 | 0.00 | 0.00 | 0.00 | 1017.3 | ||
| 20260502033357 | -17 | 0.0 | 0.0 | 0.00 | 0.00 | 0.00 | 1017.3 | ||
| 20260502032853 | 3 | 263 | 0.0 | 0.0 | 0.00 | 0.03 | 0.03 | 98 | 1017.1 |
| 20260502032349 | 3 | 263 | 0.0 | 0.0 | 0.00 | 0.03 | 0.03 | 98 | 1017.4 |
| 20260502031847 | 3 | 263 | 0.0 | 0.0 | 0.00 | 0.03 | 0.03 | 98 | 1017.6 |
| 20260502031345 | 3 | 264 | 0.0 | 0.0 | 0.00 | 0.03 | 0.03 | 98 | 1017.5 |
| 20260502030843 | 3 | 282 | 0.0 | 0.0 | 0.00 | 0.03 | 0.03 | 98 | 1017.4 |
| 20260502030341 | 3 | 254 | 0.0 | 0.0 | 0.00 | 0.03 | 0.03 | 98 | 1017.2 |
| 20260502025838 | 3 | 270 | 0.0 | 0.0 | 0.00 | 0.03 | 0.03 | 98 | 1017.3 |
| 20260502025336 | 3 | 272 | 0.0 | 0.0 | 0.00 | 0.03 | 0.03 | 98 | 1017.3 |
| 20260502024834 | 3 | 281 | 0.0 | 0.0 | 0.00 | 0.03 | 0.03 | 97 | 1017.2 |
| 20260502024331 | 3 | 256 | 0.0 | 0.0 | 0.00 | 0.03 | 0.03 | 97 | 1016.9 |
| 20260502023829 | 4 | 284 | 0.0 | 0.0 | 0.00 | 0.03 | 0.03 | 97 | 1017.0 |
| 20260502023327 | 4 | 295 | 0.0 | 0.0 | 0.00 | 0.03 | 0.03 | 96 | 1016.9 |
| 20260502022824 | 4 | 264 | 0.0 | 0.0 | 0.00 | 0.03 | 0.03 | 96 | 1017.0 |
| 20260502022320 | 5 | 287 | 0.0 | 0.0 | 0.00 | 0.03 | 0.03 | 96 | 1017.0 |
| 20260502021817 | 5 | 266 | 0.0 | 0.0 | 0.00 | 0.03 | 0.03 | 95 | 1016.6 |
| 20260502021315 | 5 | 251 | 0.0 | 0.0 | 0.00 | 0.03 | 0.03 | 95 | 1016.6 |
| 20260502020812 | 5 | 261 | 0.0 | 0.0 | 0.00 | 0.03 | 0.03 | 95 | 1016.6 |
| 20260502020309 | 5 | 284 | 0.0 | 0.0 | 0.00 | 0.03 | 0.03 | 94 | 1016.7 |
| 20260502015806 | 5 | 257 | 0.0 | 0.0 | 0.00 | 0.03 | 0.03 | 94 | 1016.8 |
| 20260502015305 | 5 | 3 | 0.0 | 0.0 | 0.00 | 0.03 | 0.03 | 93 | 1016.7 |
| 20260502014800 | 5 | 24 | 0.0 | 0.0 | 0.00 | 0.03 | 0.03 | 93 | 1016.3 |
| 20260502014257 | 5 | 245 | 0.0 | 0.0 | 0.00 | 0.03 | 0.03 | 91 | 1016.3 |
| 20260502013753 | 5 | 245 | 0.0 | 0.0 | 0.00 | 0.03 | 0.03 | 91 | 1016.4 |
| 20260502013249 | 5 | 249 | 0.0 | 0.0 | 0.00 | 0.03 | 0.03 | 90 | 1016.5 |
| 20260502012746 | 6 | 4 | 1.6 | 1.6 | 0.00 | 0.03 | 0.03 | 89 | 1016.3 |
| 20260502012244 | 6 | 310 | 1.6 | 1.6 | 0.00 | 0.03 | 0.03 | 88 | 1016.2 |
| 20260502011741 | 6 | 274 | 0.0 | 1.6 | 0.00 | 0.03 | 0.03 | 87 | 1016.0 |
| 20260502011236 | 6 | 243 | 0.0 | 0.0 | 0.00 | 0.03 | 0.03 | 85 | 1016.1 |
| 20260502010734 | 7 | 245 | 0.0 | 0.0 | 0.00 | 0.03 | 0.03 | 84 | 1015.9 |
| 20260502010230 | 7 | 254 | 0.0 | 0.0 | 0.00 | 0.03 | 0.03 | 83 | 1015.6 |
| 20260502005728 | 7 | 253 | 0.0 | 0.0 | 0.00 | 0.03 | 0.03 | 81 | 1015.6 |
| 20260502005226 | 7 | 249 | 0.0 | 0.0 | 0.00 | 0.03 | 0.03 | 80 | 1015.5 |
| 20260502004722 | 8 | 230 | 0.0 | 1.6 | 0.00 | 0.03 | 0.03 | 80 | 1015.6 |
| 20260502004218 | 8 | 322 | 0.0 | 1.6 | 0.00 | 0.03 | 0.03 | 79 | 1015.4 |
| 20260502003716 | 8 | 11 | 4.8 | 4.8 | 0.00 | 0.03 | 0.03 | 78 | 1015.3 |
| 20260502003213 | 8 | 286 | 1.6 | 1.6 | 0.00 | 0.03 | 0.03 | 77 | 1015.4 |
| 20260502002709 | 8 | 309 | 4.8 | 4.8 | 0.00 | 0.03 | 0.03 | 77 | 1015.0 |
| 20260502002207 | 8 | 263 | 1.6 | 1.6 | 0.00 | 0.03 | 0.03 | 77 | 1014.9 |
| 20260502001704 | 9 | 13 | 4.8 | 4.8 | 0.00 | 0.03 | 0.03 | 76 | 1015.0 |
| 20260502001202 | 9 | 252 | 0.0 | 1.6 | 0.00 | 0.03 | 0.03 | 75 | 1015.0 |
| 20260502000659 | 9 | 267 | 4.8 | 4.8 | 0.00 | 0.03 | 0.03 | 73 | 1014.6 |
| 20260502000157 | 9 | 342 | 6.4 | 11.3 | 0.00 | 0.03 | 0.03 | 74 | 1014.8 |
| 20260501235652 | 10 | 317 | 4.8 | 4.8 | 0.00 | 0.03 | 0.03 | 73 | 1014.4 |
| 20260501235148 | 10 | 286 | 3.2 | 3.2 | 0.00 | 0.03 | 0.03 | 73 | 1014.2 |
| 20260501234644 | 10 | 334 | 6.4 | 8.0 | 0.00 | 0.03 | 0.03 | 72 | 1014.2 |
| 20260501234142 | 10 | 244 | 3.2 | 3.2 | 0.00 | 0.03 | 0.03 | 71 | 1014.3 |
| 20260501233639 | 10 | 327 | 6.4 | 9.7 | 0.00 | 0.03 | 0.03 | 70 | 1014.0 |
| 20260501233137 | 11 | 274 | 1.6 | 1.6 | 0.00 | 0.03 | 0.03 | 71 | 1013.9 |
| 20260501232632 | 11 | 326 | 1.6 | 3.2 | 0.00 | 0.03 | 0.03 | 71 | 1013.8 |
| 20260501232130 | 11 | 317 | 4.8 | 8.0 | 0.00 | 0.03 | 0.03 | 72 | 1014.0 |
| 20260501231627 | 11 | 338 | 1.6 | 3.2 | 0.00 | 0.03 | 0.03 | 72 | 1013.8 |
| 20260501231126 | 11 | 33 | 9.7 | 11.3 | 0.00 | 0.03 | 0.03 | 71 | 1013.5 |
| 20260501230624 | 11 | 330 | 4.8 | 4.8 | 0.00 | 0.03 | 0.03 | 69 | 1013.8 |
| 20260501230122 | 11 | 21 | 4.8 | 4.8 | 0.00 | 0.03 | 0.03 | 67 | 1013.4 |
| 20260501225619 | 11 | 12 | 4.8 | 11.3 | 0.00 | 0.03 | 0.03 | 68 | 1013.1 |
| 20260501225115 | 12 | 254 | 8.0 | 9.7 | 0.00 | 0.03 | 0.03 | 66 | 1013.2 |
| 20260501224612 | 12 | 268 | 1.6 | 4.8 | 0.00 | 0.03 | 0.03 | 66 | 1013.1 |
| 20260501224109 | 12 | 279 | 4.8 | 8.0 | 0.00 | 0.03 | 0.03 | 66 | 1013.1 |
| 20260501223606 | 12 | 281 | 8.0 | 14.5 | 0.00 | 0.03 | 0.03 | 68 | 1013.0 |
| 20260501223103 | 12 | 7 | 1.6 | 4.8 | 0.00 | 0.03 | 0.03 | 72 | 1013.0 |
| 20260501222558 | 12 | 282 | 8.0 | 11.3 | 0.00 | 0.03 | 0.03 | 73 | 1013.0 |
| 20260501222056 | 12 | 60 | 4.8 | 9.7 | 0.00 | 0.03 | 0.03 | 75 | 1012.7 |
| 20260501221552 | 12 | 267 | 1.6 | 3.2 | 0.00 | 0.03 | 0.03 | 78 | 1012.8 |
| 20260501221050 | 12 | 289 | 11.3 | 12.9 | 0.00 | 0.03 | 0.03 | 78 | 1012.7 |
| 20260501220547 | 12 | 275 | 8.0 | 11.3 | 0.00 | 0.03 | 0.03 | 77 | 1012.9 |
| 20260501220044 | 12 | 271 | 17.7 | 22.5 | 0.00 | 0.03 | 0.03 | 77 | 1012.8 |
| 20260501215540 | 12 | 247 | 11.3 | 12.9 | 0.00 | 0.03 | 0.03 | 79 | 1012.6 |
| 20260501215036 | 12 | 248 | 11.3 | 14.5 | 0.00 | 0.03 | 0.03 | 80 | 1012.6 |
| 20260501214531 | 12 | 262 | 12.9 | 16.1 | 0.00 | 0.03 | 0.03 | 80 | 1012.6 |
| 20260501214027 | 12 | 256 | 11.3 | 12.9 | 0.00 | 0.03 | 0.03 | 79 | 1012.7 |
| 20260501213525 | 12 | 286 | 3.2 | 4.8 | 0.00 | 0.03 | 0.03 | 81 | 1012.4 |
| 20260501213020 | 12 | 281 | 4.8 | 4.8 | 0.00 | 0.03 | 0.03 | 82 | 1012.7 |
| 20260501212517 | 12 | 247 | 11.3 | 14.5 | 0.00 | 0.03 | 0.03 | 82 | 1013.0 |
| 20260501212014 | 11 | 244 | 11.3 | 12.9 | 0.00 | 0.03 | 0.03 | 83 | 1012.6 |
| 20260501211511 | 11 | 255 | 8.0 | 9.7 | 0.00 | 0.03 | 0.03 | 84 | 1012.7 |
| 20260501211009 | 11 | 244 | 1.6 | 1.6 | 0.00 | 0.03 | 0.03 | 86 | 1012.7 |
| 20260501210505 | 10 | 243 | 11.3 | 11.3 | 0.00 | 0.03 | 0.03 | 86 | 1012.7 |
| 20260501210001 | 10 | 256 | 3.2 | 3.2 | 0.00 | 0.03 | 0.03 | 87 | 1012.6 |
| 20260501205458 | 10 | 234 | 3.2 | 3.2 | 0.00 | 0.03 | 0.03 | 88 | 1012.8 |
| 20260501204956 | 10 | 244 | 9.7 | 11.3 | 0.00 | 0.03 | 0.03 | 88 | 1012.6 |
| 20260501204451 | 10 | 278 | 4.8 | 8.0 | 0.00 | 0.03 | 0.03 | 89 | 1012.7 |
| 20260501203948 | 10 | 232 | 1.6 | 1.6 | 0.00 | 0.03 | 0.03 | 91 | 1012.9 |
| 20260501203444 | 10 | 256 | 0.0 | 0.0 | 0.00 | 0.03 | 0.03 | 91 | 1013.0 |
| 20260501202942 | 10 | 244 | 3.2 | 3.2 | 0.00 | 0.03 | 0.03 | 90 | 1012.8 |
| 20260501202439 | 10 | 273 | 4.8 | 4.8 | 0.00 | 0.03 | 0.03 | 91 | 1012.9 |
| 20260501201935 | 10 | 285 | 8.0 | 11.3 | 0.00 | 0.03 | 0.03 | 91 | 1012.8 |
| 20260501201432 | 10 | 265 | 1.6 | 3.2 | 0.00 | 0.03 | 0.03 | 91 | 1012.9 |
| 20260501200929 | 10 | 271 | 8.0 | 9.7 | 0.00 | 0.03 | 0.03 | 90 | 1013.0 |
| 20260501200426 | 10 | 252 | 6.4 | 8.0 | 0.00 | 0.03 | 0.03 | 88 | 1013.0 |
| 20260501195924 | 10 | 300 | 4.8 | 4.8 | 0.00 | 0.03 | 0.03 | 87 | 1013.0 |
| 20260501195420 | 10 | 14 | 12.9 | 22.5 | 0.00 | 0.03 | 0.03 | 86 | 1013.0 |
| 20260501194915 | 11 | 268 | 8.0 | 9.7 | 0.00 | 0.03 | 0.03 | 85 | 1012.9 |
| 20260501194412 | 11 | 290 | 14.5 | 24.1 | 0.00 | 0.03 | 0.03 | 85 | 1012.9 |
| 20260501193908 | 11 | 295 | 8.0 | 9.7 | 0.00 | 0.03 | 0.03 | 85 | 1013.1 |
| 20260501193406 | 11 | 304 | 14.5 | 20.9 | 0.00 | 0.03 | 0.03 | 85 | 1012.8 |
| 20260501192904 | 12 | 355 | 4.8 | 8.0 | 0.00 | 0.03 | 0.03 | 84 | 1012.9 |
| 20260501192401 | 12 | 263 | 1.6 | 1.6 | 0.00 | 0.03 | 0.03 | 83 | 1013.0 |
| 20260501191857 | 12 | 358 | 1.6 | 1.6 | 0.00 | 0.03 | 0.03 | 84 | 1012.8 |
| 20260501191354 | 12 | 272 | 1.6 | 1.6 | 0.00 | 0.03 | 0.03 | 84 | 1012.5 |
| 20260501190846 | 11 | 255 | 0.0 | 1.6 | 0.00 | 0.03 | 0.03 | 84 | 1012.7 |
| 20260501190342 | 11 | 255 | 1.6 | 3.2 | 0.00 | 0.03 | 0.03 | 84 | 1012.8 |
| 20260501185837 | 11 | 264 | 1.6 | 1.6 | 0.00 | 0.03 | 0.03 | 84 | 1012.7 |
| 20260501185333 | 11 | 264 | 1.6 | 1.6 | 0.00 | 0.03 | 0.03 | 83 | 1012.4 |
| 20260501184829 | 11 | 270 | 4.8 | 4.8 | 0.18 | 0.03 | 0.03 | 83 | 1012.6 |
| 20260501184325 | 12 | 266 | 6.4 | 8.0 | 0.18 | 0.03 | 0.03 | 81 | 1012.5 |
| 20260501183821 | 12 | 258 | 1.6 | 1.6 | 0.00 | 0.00 | 0.00 | 79 | 1012.2 |
| 20260501183319 | 12 | 256 | 1.6 | 3.2 | 0.00 | 0.00 | 0.00 | 79 | 1012.3 |
| 20260501182815 | 12 | 258 | 4.8 | 8.0 | 0.00 | 0.00 | 0.00 | 76 | 1012.3 |
| 20260501182312 | 12 | 327 | 4.8 | 8.0 | 0.00 | 0.00 | 0.00 | 72 | 1012.3 |
| 20260501181809 | 13 | 328 | 3.2 | 3.2 | 0.00 | 0.00 | 0.00 | 69 | 1012.2 |
| 20260501181306 | 13 | 5 | 8.0 | 9.7 | 0.00 | 0.00 | 0.00 | 64 | 1012.0 |
| 20260501180803 | 14 | 255 | 3.2 | 4.8 | 0.00 | 0.00 | 0.00 | 62 | 1011.9 |
| 20260501180259 | 14 | 256 | 1.6 | 3.2 | 0.00 | 0.00 | 0.00 | 60 | 1011.8 |
| 20260501175756 | 15 | 265 | 4.8 | 9.7 | 0.00 | 0.00 | 0.00 | 60 | 1012.0 |
| 20260501175253 | 15 | 332 | 4.8 | 8.0 | 0.00 | 0.00 | 0.00 | 59 | 1011.8 |
| 20260501174749 | 15 | 244 | 6.4 | 9.7 | 0.00 | 0.00 | 0.00 | 57 | 1011.6 |
| 20260501174247 | 15 | 276 | 4.8 | 8.0 | 0.00 | 0.00 | 0.00 | 56 | 1011.7 |
| 20260501173745 | 15 | 239 | 3.2 | 3.2 | 0.00 | 0.00 | 0.00 | 56 | 1011.7 |
| 20260501173241 | 16 | 256 | 8.0 | 9.7 | 0.00 | 0.00 | 0.00 | 54 | 1011.6 |
| 20260501172737 | 15 | 254 | 1.6 | 3.2 | 0.00 | 0.00 | 0.00 | 56 | 1011.7 |
| 20260501172233 | 15 | 251 | 11.3 | 12.9 | 0.00 | 0.00 | 0.00 | 53 | 1011.8 |
| 20260501171729 | 15 | 254 | 8.0 | 11.3 | 0.00 | 0.00 | 0.00 | 53 | 1011.8 |
| 20260501171226 | 16 | 178 | 3.2 | 3.2 | 0.00 | 0.00 | 0.00 | 53 | 1012.1 |
| 20260501170723 | 15 | 212 | 4.8 | 4.8 | 0.00 | 0.00 | 0.00 | 54 | 1011.9 |
| 20260501170220 | 16 | 271 | 1.6 | 3.2 | 0.00 | 0.00 | 0.00 | 55 | 1012.0 |
| 20260501165717 | 15 | 278 | 8.0 | 8.0 | 0.00 | 0.00 | 0.00 | 56 | 1012.2 |
| 20260501165215 | 15 | 194 | 4.8 | 4.8 | 0.00 | 0.00 | 0.00 | 56 | 1012.1 |
| 20260501164712 | 15 | 212 | 3.2 | 3.2 | 0.00 | 0.00 | 0.00 | 56 | 1011.9 |
| 20260501164209 | 14 | 239 | 4.8 | 4.8 | 0.00 | 0.00 | 0.00 | 57 | 1012.2 |
| 20260501163705 | 14 | 248 | 8.0 | 9.7 | 0.00 | 0.00 | 0.00 | 59 | 1012.2 |
| 20260501163202 | 14 | 216 | 8.0 | 11.3 | 0.00 | 0.00 | 0.00 | 60 | 1012.3 |
| 20260501162658 | 15 | 222 | 3.2 | 3.2 | 0.00 | 0.00 | 0.00 | 59 | 1012.2 |
| 20260501162155 | 15 | 155 | 9.7 | 14.5 | 0.00 | 0.00 | 0.00 | 57 | 1012.2 |
| 20260501161652 | 14 | 178 | 6.4 | 9.7 | 0.00 | 0.00 | 0.00 | 59 | 1012.3 |
| 20260501161149 | 15 | 275 | 3.2 | 4.8 | 0.00 | 0.00 | 0.00 | 58 | 1012.4 |
| 20260501160645 | 14 | 228 | 4.8 | 9.7 | 0.00 | 0.00 | 0.00 | 59 | 1012.5 |
| 20260501160143 | 15 | 204 | 8.0 | 9.7 | 0.00 | 0.00 | 0.00 | 58 | 1012.3 |